Hourly Data Report for June 28, 2006

TORONTO CITY
ONTARIO

43°40'00.000" N
79°24'00.000" W
112.50 m
6158355
71508
XTO

Download Data

Hourly Data (June 2006)
Hourly Data Report for June 28, 2006
TIME
LST
Temp Definition
°C
Dew Point Definition
°C
Rel Hum Definition
%
Precip. Amount Definition
mm

Wind Dir Definition
10's deg

Wind Spd Definition
km/h
Visibility Definition
km
Stn Press Definition
kPa
Hmdx Definition


Wind Chill Definition


Weather Definition


00:00 20.7 19.9 95   LegendMM LegendMM   100.06 28   LegendNANA
01:00 20.2 19.6 96   LegendMM LegendMM   100.04 27   LegendNANA
02:00 19.9 19.5 98   LegendMM LegendMM   100.02     LegendNANA
03:00 19.8 19.5 98   LegendMM LegendMM   100.02     LegendNANA
04:00 19.0 18.7 98   LegendMM LegendMM   100.02     LegendNANA
05:00 18.7 18.5 99   LegendMM LegendMM   100.06     LegendNANA
06:00 19.5 19.4 99   LegendMM LegendMM   100.07     LegendNANA
07:00 21.2 19.5 90   LegendMM LegendMM   100.10 28   LegendNANA
08:00 22.7 17.6 73   LegendMM LegendMM   100.12 28   LegendNANA
09:00 22.9 19.0 79   LegendMM LegendMM   100.16 30   LegendNANA
10:00 23.0 18.7 77   LegendMM LegendMM   100.17 30   LegendNANA
11:00 24.4 19.3 73   LegendMM LegendMM   100.17 31   LegendNANA
12:00 25.4 19.6 70   LegendMM LegendMM   100.16 33   LegendNANA
13:00 26.7 19.2 63   LegendMM LegendMM   100.05 34   LegendNANA
14:00 25.8 18.5 64   LegendMM LegendMM   100.07 32   LegendNANA
15:00 25.6 18.7 66   LegendMM LegendMM   100.04 32   LegendNANA
16:00 26.0 17.3 59   LegendMM LegendMM   99.98 31   LegendNANA
17:00 25.7 17.7 61   LegendMM LegendMM   100.00 31   LegendNANA
18:00 25.1 17.2 62   LegendMM LegendMM   100.01 31   LegendNANA
19:00 23.3 17.2 69   LegendMM LegendMM   100.06 29   LegendNANA
20:00 20.4 17.3 82   LegendMM LegendMM   100.13 26   LegendNANA
21:00 19.0 18.1 95   LegendMM LegendMM   100.17     LegendNANA
22:00 18.4 17.9 97   LegendMM LegendMM   100.11     LegendNANA
23:00 19.2 18.7 97   LegendMM LegendMM   100.15     LegendNANA

Notes on Data Quality.

Legend

  • E = Estimated
  • M = Missing
  • NA = Not Available*
  • [empty] = Indicates an unobserved value
Date modified: